Weather History for KRST - September, 2013

Change the Weather History Date:

Tuesday, September 24, 2013

  Actual Average Record
Temperature  
Mean Temperature 59 °F 57 °F  
Max Temperature 72 °F 68 °F 88 °F (1937)
Min Temperature 46 °F 47 °F 27 °F (1942)
Degree Days  
Heating Degree Days 6 9  
Month to date heating degree days 99 117  
Since 1 July heating degree days 133 155  
Cooling Degree Days 0 1  
Month to date cooling degree days 91 49  
Year to date cooling degree days 647 574  
Growing Degree Days 9 (Base 50)    
Moisture  
Dew Point 49 °F    
Average Humidity 71    
Maximum Humidity 93    
Minimum Humidity 49    
Precipitation  
Precipitation 0.00 in 0.12 in 2.49 in (2007)
Month to date precipitation 0.84 2.82  
Year to date precipitation 35.54 27.01  
Snow  
Snow 0.00 in 0.00 in 0.00 in (2012)
Month to date snowfall 0.0 0.0  
Since 1 July snowfall 0.0 0.0  
Snow Depth 0.00 in    
Sea Level Pressure  
Sea Level Pressure 29.97 in    
Wind  
Wind Speed 9 mph (ESE)    
Max Wind Speed 15 mph    
Max Gust Speed 21 mph    
Visibility 9 miles    
Events      
T = Trace of Precipitation, MM = Missing Value Source: NWS Daily Summary

Daily Weather History Graph

Daily Weather History Graph

Search for Another Location

Airport or City:

Trip Planner

Search our weather history database for the weather conditions in past years. The results will help you decide how hot, cold, wet, or windy it might be!

Date:

Astronomy

Sep. 24, 2013 Rise Set
Actual Time 6:59 AM CDT 7:03 PM CDT
Civil Twilight 6:31 AM CDT 7:31 PM CDT
Nautical Twilight 5:57 AM CDT 8:05 PM CDT
Astronomical Twilight 5:22 AM CDT 8:39 PM CDT
Moon 10:10 PM CDT (9/24) 12:25 PM CDT (9/24)
Length of Visible Light 13h 00m
Length of Day
12h 03m
Waning Gibbous, 73% of the Moon is Illuminated
Sep 24
Waning Gibbous
Sep 26
Last Quarter
Oct 4
New
Oct 11
First Quarter
Oct 18
Full

Hourly Weather History & Observations

Time (CDT) Temp. Dew Point Humidity Pressure Visibility Wind Dir Wind Speed Gust Speed Precip Events Conditions
12:54 AM 53.1 °F 48.0 °F 83% 29.97 in 10.0 mi SE 12.7 mph - N/A   Clear
1:54 AM 52.0 °F 46.9 °F 83% 29.97 in 10.0 mi SSE 13.8 mph - N/A   Clear
2:54 AM 51.1 °F 46.9 °F 86% 29.96 in 10.0 mi SSE 10.4 mph - N/A   Clear
3:54 AM 50.0 °F 46.0 °F 86% 29.96 in 9.0 mi SE 8.1 mph - N/A   Clear
4:54 AM 48.9 °F 45.0 °F 86% 29.96 in 7.0 mi SE 8.1 mph - N/A   Clear
5:54 AM 48.0 °F 45.0 °F 89% 29.97 in 6.0 mi SE 9.2 mph - N/A   Clear
6:54 AM 46.9 °F 44.1 °F 90% 29.98 in 5.0 mi ESE 8.1 mph - N/A   Clear
7:54 AM 50.0 °F 46.0 °F 86% 29.99 in 4.0 mi ESE 8.1 mph - N/A   Clear
8:54 AM 54.0 °F 48.0 °F 80% 29.99 in 6.0 mi SE 11.5 mph - N/A   Haze
9:54 AM 57.9 °F 48.9 °F 72% 30.01 in 9.0 mi SSE 12.7 mph - N/A   Clear
10:54 AM 63.0 °F 52.0 °F 67% 30.00 in 10.0 mi SE 9.2 mph - N/A   Clear
11:54 AM 66.9 °F 53.1 °F 61% 29.99 in 10.0 mi East 10.4 mph - N/A   Clear
12:54 PM 69.1 °F 53.1 °F 57% 29.97 in 10.0 mi ESE 10.4 mph - N/A   Clear
1:54 PM 71.1 °F 52.0 °F 51% 29.96 in 10.0 mi East 9.2 mph - N/A   Clear
2:54 PM 69.1 °F 52.0 °F 54% 29.94 in 10.0 mi ESE 9.2 mph - N/A   Clear
3:54 PM 70.0 °F 53.1 °F 55% 29.95 in 10.0 mi East 9.2 mph - N/A   Clear
4:54 PM 70.0 °F 51.1 °F 51% 29.95 in 10.0 mi East 10.4 mph - N/A   Clear
5:54 PM 68.0 °F 50.0 °F 52% 29.96 in 10.0 mi ESE 9.2 mph - N/A   Clear
6:54 PM 62.1 °F 50.0 °F 65% 29.96 in 10.0 mi ESE 6.9 mph - N/A   Clear
7:54 PM 62.1 °F 50.0 °F 65% 29.97 in 10.0 mi East 4.6 mph - N/A   Clear
8:54 PM 60.1 °F 50.0 °F 69% 29.97 in 10.0 mi East 5.8 mph - N/A   Clear
9:54 PM 57.0 °F 48.9 °F 74% 29.97 in 10.0 mi SE 4.6 mph - N/A   Clear
10:54 PM 55.9 °F 48.9 °F 77% 29.97 in 10.0 mi SE 4.6 mph - N/A   Clear
11:54 PM 54.0 °F 48.0 °F 80% 29.96 in 10.0 mi SE 8.1 mph - N/A   Clear